Tracking 30995 objects as of 7-Jul-2025
HD Live streaming from Space Station
objects crossing your sky now

STARLINK-5424

Track STARLINK-5424 now!
10-day predictions
STARLINK-5424 is classified as:


NORAD ID: 54811
Int'l Code: 2022-175BF
Perigee: 546.0 km
Apogee: 547.6 km
Inclination: 53.2 °
Period: 95.4 minutes
Semi major axis: 6917 km
RCS: Unknown
Launch date: December 17, 2022
Source: United States (US)
Launch site: AIR FORCE EASTERN TEST RANGE (AFETR)
Your satellite tracking list
Your tracking list is empty




NASA's NSSDC Master Catalog

Two Line Element Set (TLE):
1 54811U 22175BF  25187.83941227  .00011868  00000-0  76199-3 0  9994
2 54811  53.2172  47.8289 0001202  89.0180 271.0950 15.08864378140920
Source of the keplerian elements: AFSPC